Date,TemperatureHighF,TemperatureAvgF,TemperatureLowF,DewpointHighF,DewpointAvgF,DewpointLowF,HumidityHigh,HumidityAvg,HumidityLow,PressureMaxIn,PressureMinIn,WindSpeedMaxMPH,WindSpeedAvgMPH,GustSpeedMaxMPH,PrecipitationSumIn
2013-3-1,39.7,31.0,22.1,19.9,14.1,8.7,66,50,39,21.11,21.11,23,7,23,0.00
2013-3-2,56.8,41.4,25.9,27.2,19.7,9.4,64,43,26,21.11,21.11,26,9,26,0.00
2013-3-3,65.1,47.0,32.5,26.3,20.3,15.7,58,38,15,21.11,21.11,31,9,31,0.00
2013-3-4,44.4,34.4,22.3,20.7,6.9,-7.9,51,32,18,21.11,21.11,35,19,35,0.00
2013-3-5,38.8,27.1,18.3,3.5,-1.5,-6.6,43,30,16,21.11,21.11,27,13,28,0.00
2013-3-6,44.1,30.3,19.9,15.9,9.4,-1.2,59,42,30,21.11,21.11,37,20,38,0.00
2013-3-7,53.4,35.9,23.7,25.6,17.1,8.7,66,48,27,21.11,21.11,18,9,18,0.00
2013-3-8,52.3,39.8,27.0,30.4,21.4,13.5,63,49,31,21.11,21.11,26,12,26,0.00
2013-3-9,50.0,35.5,28.4,42.0,29.2,22.3,85,78,63,21.11,21.11,33,15,33,0.00
2013-3-11,47.1,38.0,21.4,22.2,18.0,7.3,58,45,32,21.11,21.11,23,11,25,0.00
2013-3-12,42.1,33.9,25.5,20.0,6.0,-7.2,57,33,18,21.11,21.11,33,13,33,0.00
2013-3-13,63.7,41.8,23.7,24.0,12.3,-0.4,44,31,13,21.11,21.11,17,8,17,0.00
2013-3-14,70.0,53.0,39.6,24.8,17.9,8.4,46,28,12,21.11,21.11,15,9,16,0.00
2013-3-15,75.6,54.8,37.4,27.6,17.1,5.8,52,28,8,21.11,21.11,28,12,28,0.00
2013-3-16,47.7,38.0,28.9,22.7,17.5,12.1,63,44,30,21.11,21.11,26,12,26,0.00
2013-3-17,53.1,33.5,27.7,31.2,21.4,14.1,80,63,27,21.11,21.11,33,15,35,0.04
2013-3-18,46.4,34.5,23.0,15.0,7.2,-3.5,61,35,15,21.11,21.11,26,12,27,0.00
2013-3-19,47.5,32.9,21.7,17.1,6.9,-0.2,58,35,14,21.11,21.11,32,8,33,0.00
2013-3-20,49.6,33.2,14.5,7.8,3.2,-4.4,51,30,16,21.11,21.11,33,14,33,0.00
2013-3-21,46.8,35.4,24.4,24.2,12.3,5.1,69,40,24,21.11,21.11,34,17,34,0.00
2013-3-22,46.4,36.5,26.8,25.2,18.1,12.9,71,49,30,21.11,21.11,16,4,16,0.00
2013-3-23,32.5,25.0,18.5,21.4,12.2,3.0,72,58,44,21.11,21.11,31,16,31,0.00
2013-3-24,30.2,19.0,7.3,8.5,1.7,-6.8,54,47,35,21.11,21.11,28,12,28,0.00
2013-3-25,31.6,20.2,8.1,4.9,0.1,-6.3,54,41,31,21.11,21.11,23,9,23,0.00
2013-3-26,41.0,23.6,10.4,13.8,2.9,-5.8,53,41,26,21.11,21.11,26,9,27,0.00
2013-3-27,55.8,46.6,35.2,21.7,15.1,9.3,53,29,17,21.11,21.11,11,5,11,0.00
2013-3-28,63.3,47.0,30.7,26.8,20.3,13.0,58,37,18,21.11,21.11,26,11,26,0.00
2013-3-29,71.4,51.8,36.0,34.1,24.8,18.4,54,38,14,21.11,21.11,35,11,35,0.00
2013-3-30,62.6,48.9,36.7,29.1,24.6,21.5,68,41,23,21.11,21.11,31,10,33,0.00
2013-3-31,68.5,46.6,30.6,34.9,19.6,5.6,74,43,10,21.11,21.11,33,13,232,0.00